Bangkok (Don Mueang), Thailand

2:07 AM ICT on February 11, 2016 (GMT +0700)
Bangkok International

Weather History for VTBD - June, 2013

Change the Weather History Date:

Wednesday, June 5, 2013

  Actual Average Record
Temperature  
Mean Temperature 83 °F -  
Max Temperature 89 °F 91 °F 100 °F (1997)
Min Temperature 77 °F 77 °F 77 °F (2004)
Cooling Degree Days 18    
Growing Degree Days 33 (Base 50)    
Moisture  
Dew Point 77 °F    
Average Humidity 89    
Maximum Humidity 94    
Minimum Humidity 66    
Precipitation  
Precipitation 1.38 in 0.18 in - ()
Sea Level Pressure  
Sea Level Pressure 29.77 in    
Wind  
Wind Speed 5 mph ()    
Max Wind Speed 24 mph    
Max Gust Speed -    
Visibility 5.8 miles    
Events Rain , Thunderstorm    
Averages and records for this station are not official NWS values.
T = Trace of Precipitation, MM = Missing Value Source: Averaged Metar Reports

Daily Weather History Graph

Daily Weather History Graph

Search for Another Location

Airport or City:

Trip Planner

Search our weather history database for the weather conditions in past years. The results will help you decide how hot, cold, wet, or windy it might be!

Date:

Astronomy

Jun. 05, 2013 Rise Set
Actual Time 5:48 AM ICT 6:43 PM ICT
Civil Twilight 5:25 AM ICT 7:06 PM ICT
Nautical Twilight 4:57 AM ICT 7:34 PM ICT
Astronomical Twilight 4:29 AM ICT 8:02 PM ICT
Moon 3:08 AM ICT (6/5) 4:01 PM ICT (6/5)
Length of Visible Light 13h 41m
Length of Day
12h 54m
Waning Crescent, 11% of the Moon is Illuminated
Jun 5
Waning Crescent
Jun 8
New
Jun 17
First Quarter
Jun 23
Full
Jun 30
Last Quarter

Hourly Weather History & Observations

Time (ICT) Temp. Heat Index Dew Point Humidity Pressure Visibility Wind Dir Wind Speed Gust Speed Precip Events Conditions
12:00 AM 80.6 °F 88.1 °F 78.8 °F 94% 29.77 in 6.2 mi SSE 4.6 mph - N/A   Mostly Cloudy
12:30 AM 80.6 °F 87.1 °F 77.0 °F 89% 29.77 in 6.2 mi South 4.6 mph - N/A   Mostly Cloudy
1:00 AM 81 °F - 78 °F 86% 29.79 in 6 mi SSE 4.6 mph - -   Scattered Clouds
1:00 AM 80.6 °F 87.1 °F 77.0 °F 89% 29.77 in 6.2 mi SSE 4.6 mph - N/A   Mostly Cloudy
1:30 AM 80.6 °F 87.1 °F 77.0 °F 89% 29.77 in 6.2 mi South 5.8 mph - N/A   Mostly Cloudy
2:00 AM 80.6 °F 87.1 °F 77.0 °F 89% 29.77 in 6.2 mi South 9.2 mph - N/A   Mostly Cloudy
2:30 AM 80.6 °F 87.1 °F 77.0 °F 89% 29.77 in 6.2 mi South 9.2 mph - N/A Rain Light Rain
3:00 AM 80.6 °F 87.1 °F 77.0 °F 89% 29.74 in 6.2 mi South 4.6 mph - N/A   Mostly Cloudy
3:30 AM 78.8 °F - 77.0 °F 94% 29.74 in 6.2 mi ESE 3.5 mph - N/A   Mostly Cloudy
4:00 AM 78.8 °F - 77.0 °F 94% 29.74 in 6.2 mi Calm Calm - N/A   Mostly Cloudy
4:30 AM 78.8 °F - 77.0 °F 94% 29.74 in 6.2 mi Calm Calm - N/A   Mostly Cloudy
5:00 AM 78.8 °F - 77.0 °F 94% 29.74 in 6.2 mi ENE 3.5 mph - N/A   Mostly Cloudy
5:30 AM 78.8 °F - 75.2 °F 89% 29.74 in 6.2 mi East 3.5 mph - N/A   Mostly Cloudy
6:00 AM 78.8 °F - 77.0 °F 94% 29.74 in 6.2 mi Calm Calm - N/A   Mostly Cloudy
6:30 AM 78.8 °F - 77.0 °F 94% 29.77 in 6.2 mi ESE 3.5 mph - N/A   Mostly Cloudy
7:00 AM 80 °F - 76 °F 84% 29.79 in 6 mi SE 3.5 mph - -   Scattered Clouds
7:00 AM 78.8 °F - 75.2 °F 89% 29.77 in 6.2 mi SE 3.5 mph - N/A   Mostly Cloudy
7:30 AM 80.6 °F 87.1 °F 77.0 °F 89% 29.77 in 6.2 mi East 3.5 mph - N/A   Mostly Cloudy
8:00 AM 80.6 °F 87.1 °F 77.0 °F 89% 29.80 in 6.2 mi SSE 3.5 mph - N/A   Mostly Cloudy
9:00 AM 82.4 °F 90.9 °F 77.0 °F 84% 29.80 in 6.2 mi ESE 4.6 mph - N/A   Mostly Cloudy
9:30 AM 84.2 °F 92.3 °F 75.2 °F 74% 29.80 in 6.2 mi SSE 3.5 mph - N/A   Mostly Cloudy
10:00 AM 86.0 °F 96.9 °F 77.0 °F 74% 29.80 in 6.2 mi ESE 5.8 mph - N/A   Mostly Cloudy
10:30 AM 87.8 °F 99.7 °F 77.0 °F 70% 29.80 in 6.2 mi South 8.1 mph - N/A   Mostly Cloudy
11:00 AM 89.6 °F 102.2 °F 77.0 °F 66% 29.80 in 6.2 mi East 5.8 mph - N/A   Mostly Cloudy
11:30 AM 89.6 °F 102.2 °F 77.0 °F 66% 29.80 in 6.2 mi SSE 5.8 mph - N/A   Mostly Cloudy
12:00 PM 86.0 °F 99.3 °F 78.8 °F 79% 29.77 in 0.6 mi South 24.2 mph - N/A Rain Heavy Rain
12:30 PM 82.4 °F 94.0 °F 80.6 °F 94% 29.77 in 3.1 mi ENE 2.3 mph - N/A Rain , Thunderstorm Thunderstorms and Rain
1:00 PM 82 °F - 78 °F 83% 29.80 in 6 mi WNW 8.1 mph - - Rain Light Rain
1:00 PM 82.4 °F 92.4 °F 78.8 °F 89% 29.77 in 5.6 mi WNW 8.1 mph - N/A Rain Light Rain
1:30 PM 78.8 °F - 75.2 °F 89% 29.77 in 5.0 mi WNW 3.5 mph - N/A Rain Light Rain
2:00 PM 78.8 °F - 75.2 °F 89% 29.74 in 5.0 mi WNW 4.6 mph - N/A Rain Light Rain
2:30 PM 78.8 °F - 75.2 °F 89% 29.74 in 6.2 mi WNW 2.3 mph - N/A   Mostly Cloudy
3:00 PM 78.8 °F - 75.2 °F 89% 29.71 in 6.2 mi West 3.5 mph - N/A   Mostly Cloudy
3:30 PM 78.8 °F - 75.2 °F 89% 29.71 in 6.2 mi WNW 2.3 mph - N/A   Mostly Cloudy
4:00 PM 82.4 °F 92.4 °F 78.8 °F 89% 29.71 in 6.2 mi ENE 4.6 mph - N/A   Mostly Cloudy
4:30 PM 80.6 °F 88.1 °F 78.8 °F 94% 29.71 in 5.0 mi ESE 3.5 mph - N/A Rain Light Rain
5:00 PM 80.6 °F 88.1 °F 78.8 °F 94% 29.71 in 5.0 mi East 6.9 mph - N/A Rain Light Rain
5:30 PM 80.6 °F 88.1 °F 78.8 °F 94% 29.71 in 6.2 mi SE 4.6 mph - N/A Rain Light Rain
6:00 PM 80.6 °F 88.1 °F 78.8 °F 94% 29.74 in 6.2 mi NE 8.1 mph - N/A Rain Light Rain
6:30 PM 80.6 °F 88.1 °F 78.8 °F 94% 29.74 in 6.2 mi WNW 4.6 mph - N/A Rain Light Rain
7:00 PM 79 °F - 76 °F 89% 29.80 in 5 mi NNW 6.9 mph - - Rain Light Rain
7:00 PM 78.8 °F - 77.0 °F 94% 29.77 in 5.0 mi NNW 6.9 mph - N/A Rain Light Rain
7:30 PM 78.8 °F - 77.0 °F 94% 29.80 in 5.0 mi WNW 5.8 mph - N/A Rain Light Rain
8:00 PM 77.0 °F - 75.2 °F 94% 29.80 in 6.2 mi North 9.2 mph - N/A   Mostly Cloudy
8:30 PM 77.0 °F - 75.2 °F 94% 29.83 in 6.2 mi NNE 6.9 mph - N/A   Mostly Cloudy
9:00 PM 77.0 °F - 75.2 °F 94% 29.83 in 6.2 mi NNE 3.5 mph - N/A   Mostly Cloudy
9:30 PM 77.0 °F - 75.2 °F 94% 29.83 in 6.2 mi ESE 4.6 mph - N/A   Mostly Cloudy
10:00 PM 77.0 °F - 75.2 °F 94% 29.83 in 6.2 mi ESE 4.6 mph - N/A   Mostly Cloudy
10:30 PM 77.0 °F - 75.2 °F 94% 29.83 in 6.2 mi ESE 3.5 mph - N/A   Mostly Cloudy
11:00 PM 77.0 °F - 75.2 °F 94% 29.86 in 5.6 mi SSE 3.5 mph - N/A Rain Light Rain
11:30 PM 77.0 °F - 75.2 °F 94% 29.86 in 5.6 mi SSE 3.5 mph - N/A Rain Light Rain